Location: Napier
(39.4830°S, 176.9170°E)
Time: 04:18:40
(UTC+13:00)

Cosmos 1741 Rocket - Pass Details

Date: 24 January 2019
Orbit: 761 x 783 km, 74.0° (Epoch: 21 February)

Event Time Altitude Azimuth Distance (km) Brightness Sun altitude
Rises 21:14:42 0° 338° (NNW) 3,255 7.1 -7.3°
Reaches altitude 10° 21:17:04 10° 336° (NNW) 2,337 6.4 -7.7°
Maximum altitude 21:22:23 74° 250° (WSW) 826 4.4 -8.6°
Drops below altitude 10° 21:27:48 10° 165° (SSE) 2,372 6.8 -9.5°
Sets 21:30:13 0° 163° (SSE) 3,307 7.5 -9.8°
